Location: Newark
(1.4667°N, 173.0333°E)
Time: 04:13:10
(UTC+00:00)

Hubble Space Telescope - Pass Details

Date: 23 March 2019
Orbit: 537 x 540 km, 28.5° (Epoch: 19 April)

Event Time Altitude Azimuth Distance (km) Brightness Sun altitude
Exits shadow 16:15:01 14° 103° (ESE) 1,541 3.8 -34.8°
Drops below altitude 10° 16:15:39 10° 106° (ESE) 1,781 4.1 -34.7°
Sets 16:17:58 0° 111° (ESE) 2,672 5.2 -34.1°
